Погода в Донгхое

Вьетнам     17°28′04″N   106°37′21″E
темп.,
°C
ветер,
м/с
пор.,
м/с
влажн.,
%
обл.,
%
осадки,
мм/ч
давл.,
гПа
погр.,
м
7 марта, вс
вс701:00+22сз22974 1.8 101351
04:00+22с249561 0.0 1013223
07:00+22сз119581 0.1 101594
10:00+24св2388100 0.6 1017396
13:00+22ссв4695100 1.4 1015316
16:00+22ссв2495100 0.3 1013251
19:00+21ссв1297100 0.4 1014134
22:00+21с239799 0.1 1016137
8 марта, пн
пн801:00+20зсз119887 0.2 101545
04:00+20ссз129872 0.1 101461
07:00+21с119370 0.3 101639
10:00+25всв248034 0.3 1018625
13:00+24в458457 0.6 1015552
16:00+23вюв358799 0.3 1013496
19:00+22ююв229557 0.4 101462
22:00+21ююв229738 0.1 101646
9 марта, вт
вт901:00+21ю119548 0.2 101524
04:00+22вюв239685 0.3 101493
07:00+22ююв269581 0.6 1016428
10:00+24юв378898 0.5 1017635
13:00+26вюв577173 0.8 1014914
16:00+25в46784 0.0 1013716
19:00+21вюв11965 0.1 101426
22:00+21юв129721 0.3 101624
10 марта, ср
ср1001:00+21юв229831 0.7 101573
04:00+21вюв249857 0.7 1014147
07:00+22юв389655 1.4 1016581
10:00+24вюв488652 0.6 1017738
13:00+26вюв577747 0.9 1014795
16:00+24в468220 0.2 1012657
19:00+22юв229525 0.4 101476
22:00+22вюв279553 0.4 1016413
11 марта, чт
чт1101:00+21юв229737 0.8 101585
04:00+21ююв129821 0.3 101432
07:00+22ю119416 0.4 101662
10:00+26вюв36751 0.1 1017842
13:00+26в467214 0.2 1014855
16:00+25всв358318 0.1 1013597
19:00+22всв119720 0.4 101428
22:00+21в119714 0.6 101627